Montgomery, NY

8:33 AM EST on November 19, 2017 (GMT -0500)
Orange County

Weather History for KMGJ - January, 2014

Change the Weather History Date:

Saturday, January 18, 2014

  Actual Average (KSWF) Record (KSWF)
Temperature  
Mean Temperature 31 °F -  
Max Temperature 36 °F 29 °F 60 °F (2006)
Min Temperature 26 °F 14 °F -14 °F (1982)
Degree Days  
Heating Degree Days 34    
Moisture  
Dew Point 26 °F    
Average Humidity 83    
Maximum Humidity 92    
Minimum Humidity 61    
Precipitation  
Precipitation 0.06 in - - ()
Sea Level Pressure  
Sea Level Pressure 29.75 in    
Wind  
Wind Speed 4 mph (NW)    
Max Wind Speed 17 mph    
Max Gust Speed 26 mph    
Visibility 5 miles    
Events Fog , Snow    
Averages and records for this station are not official NWS values.
T = Trace of Precipitation, MM = Missing Value Source: NWS Daily Summary

Daily Weather History Graph

Daily Weather History Graph

Search for Another Location

Airport or City:

Trip Planner

Search our weather history database for the weather conditions in past years. The results will help you decide how hot, cold, wet, or windy it might be!

Date:

Astronomy

Jan. 18, 2014 Rise Set
Actual Time 7:19 AM EST 4:55 PM EST
Civil Twilight 6:49 AM EST 5:26 PM EST
Nautical Twilight 6:15 AM EST 6:00 PM EST
Astronomical Twilight 5:42 AM EST 6:33 PM EST
Moon 7:37 PM EST (1/18) 8:15 AM EST (1/18)
Length of Visible Light 10h 36m
Length of Day
9h 35m
Waning Gibbous, 94% of the Moon is Illuminated
Jan 18
Waning Gibbous
Jan 24
Last Quarter
Jan 30
New
Feb 6
First Quarter
Feb 14
Full

Hourly Weather History & Observations

Time (EST) Temp. Windchill Dew Point Humidity Pressure Visibility Wind Dir Wind Speed Gust Speed Precip Events Conditions
12:54 AM 26.1 °F - 24.1 °F 92% 29.86 in 4.0 mi Calm Calm - N/A   Clear
1:54 AM 26.1 °F 21.9 °F 24.1 °F 92% 29.86 in 6.0 mi North 3.5 mph - N/A   Clear
2:54 AM 28.0 °F 24.2 °F 25.0 °F 88% 29.83 in 7.0 mi North 3.5 mph - 0.00 in   Clear
3:54 AM 28.0 °F - 25.0 °F 88% 29.81 in 7.0 mi Calm Calm - N/A   Overcast
4:54 AM 28.9 °F 25.2 °F 26.1 °F 89% 29.78 in 6.0 mi North 3.5 mph - N/A   Overcast
5:54 AM 30.0 °F 25.2 °F 27.0 °F 88% 29.77 in 3.0 mi NW 4.6 mph - 0.00 in Snow Light Snow
6:02 AM 30.0 °F 26.5 °F 27.0 °F 88% 29.76 in 4.0 mi NW 3.5 mph - 0.00 in Snow Light Snow
6:54 AM 30.0 °F 24.1 °F 27.0 °F 88% 29.75 in 5.0 mi NE 5.8 mph - 0.00 in Snow Light Snow
7:01 AM 30.0 °F 23.2 °F 27.0 °F 88% 29.72 in 7.0 mi NE 6.9 mph - 0.00 in   Overcast
7:54 AM 30.9 °F 24.3 °F 27.0 °F 85% 29.73 in 5.0 mi North 6.9 mph - 0.00 in   Overcast
8:38 AM 30.9 °F - 28.0 °F 89% 29.72 in 1.5 mi Calm Calm - 0.00 in Snow Light Snow
8:40 AM 30.9 °F - 28.0 °F 89% 29.72 in 1.0 mi Calm Calm - 0.00 in Snow Light Snow
8:47 AM 30.9 °F 26.2 °F 28.0 °F 89% 29.73 in 0.5 mi NW 4.6 mph - 0.00 in Fog , Snow Snow
8:54 AM 30.9 °F 24.3 °F 28.0 °F 89% 29.74 in 0.5 mi NNW 6.9 mph - 0.01 in Fog , Snow Snow
9:02 AM 30.9 °F 25.2 °F 28.0 °F 89% 29.73 in 1.2 mi North 5.8 mph - 0.00 in Snow Light Snow
9:12 AM 32.0 °F - 28.9 °F 88% 29.74 in 2.5 mi Calm Calm - 0.00 in Snow Light Snow
9:26 AM 32.0 °F 27.5 °F 28.9 °F 88% 29.74 in 1.0 mi SSW 4.6 mph - 0.00 in Snow Light Snow
9:34 AM 32.0 °F 26.4 °F 28.9 °F 88% 29.74 in 0.5 mi SW 5.8 mph - 0.01 in Fog , Snow Snow
9:42 AM 32.0 °F 27.5 °F 28.9 °F 88% 29.74 in 0.2 mi SW 4.6 mph - 0.02 in Fog , Snow Heavy Snow
9:54 AM 32.0 °F - 30.0 °F 92% 29.75 in 0.5 mi Calm Calm - 0.03 in Fog , Snow Snow
10:02 AM 32.0 °F - 30.0 °F 92% 29.74 in 0.5 mi Calm Calm - 0.01 in Fog , Snow Snow
10:09 AM 32.0 °F - 30.0 °F 92% 29.73 in 0.2 mi Calm Calm - 0.01 in Fog , Snow Snow
10:25 AM 32.0 °F 28.7 °F 30.0 °F 92% 29.73 in 1.0 mi NNW 3.5 mph - 0.02 in Snow Light Snow
10:30 AM 32.0 °F - 30.0 °F 92% 29.73 in 1.2 mi Calm Calm - 0.02 in Snow Light Snow
10:40 AM 33.1 °F - 30.0 °F 89% 29.72 in 1.8 mi Calm Calm - 0.02 in Snow Light Snow
10:54 AM 32.0 °F - 30.0 °F 92% 29.73 in 1.8 mi Calm Calm - 0.02 in Snow Light Snow
11:02 AM 32.0 °F - 30.0 °F 92% 29.71 in 2.5 mi Calm Calm - 0.00 in   Overcast
11:17 AM 33.1 °F - 30.0 °F 89% 29.70 in 2.5 mi Calm Calm - 0.00 in Snow Light Snow
11:34 AM 33.1 °F - 30.9 °F 92% 29.69 in 3.0 mi Calm Calm - 0.00 in   Overcast
11:54 AM 33.1 °F 28.7 °F 30.0 °F 89% 29.70 in 5.0 mi SW 4.6 mph - 0.00 in Snow Light Snow
12:54 PM 34.0 °F 31.0 °F 28.9 °F 82% 29.67 in 8.0 mi WSW 3.5 mph - 0.00 in   Overcast
1:54 PM 36.0 °F 27.1 °F 27.0 °F 70% 29.67 in 10.0 mi West 13.8 mph 20.7 mph N/A   Scattered Clouds
2:54 PM 35.1 °F 25.2 °F 25.0 °F 67% 29.68 in 10.0 mi NW 16.1 mph 21.9 mph N/A   Clear
3:54 PM 33.1 °F 23.9 °F 21.9 °F 64% 29.71 in 10.0 mi WNW 12.7 mph 21.9 mph N/A   Clear
4:54 PM 30.9 °F 22.2 °F 19.0 °F 61% 29.75 in 10.0 mi WNW 10.4 mph 23.0 mph N/A   Clear
5:54 PM 28.9 °F 16.9 °F 18.0 °F 64% 29.76 in 10.0 mi NW 17.3 mph 24.2 mph N/A   Clear
6:54 PM 28.9 °F 19.2 °F 17.1 °F 61% 29.76 in 10.0 mi NNW 11.5 mph 26.5 mph N/A   Clear
7:54 PM 28.9 °F 18.2 °F 18.0 °F 64% 29.79 in 10.0 mi WNW 13.8 mph 25.3 mph N/A   Overcast
8:54 PM 28.0 °F 18.6 °F 17.1 °F 63% 29.79 in 10.0 mi WNW 10.4 mph - N/A   Clear
9:54 PM 27.0 °F 19.5 °F 17.1 °F 66% 29.80 in 10.0 mi West 6.9 mph - N/A   Partly Cloudy
10:54 PM 26.1 °F 18.4 °F 17.1 °F 69% 29.80 in 10.0 mi WNW 6.9 mph - N/A   Clear
11:54 PM 26.1 °F 17.6 °F 17.1 °F 69% 29.81 in 10.0 mi WSW 8.1 mph - N/A   Clear